Location: Elaine Barite Prospect
(34.1431°N, 106.7922°W)
Time: 06:05:51
(UTC+00:00)

OAO 3 Rocket - Pass Details

Date: 13 December 2025
Orbit: 613 x 661 km, 35.0° (Epoch: 12 January)

Event Time Altitude Azimuth Distance (km) Brightness Sun altitude
Exits shadow 13:14:16 12° 270° (W) 1,877 5.0 -10.3°
Maximum altitude 13:18:36 80° 356° (N) 642 3.1 -9.5°
Drops below altitude 10° 13:23:19 10° 85° (E) 2,022 6.8 -8.5°
Sets 13:25:42 0° 86° (E) 2,940 7.8 -8.1°
